Regional Weather Roundup
Issued by NWS Portland, ME

Home | Current Version | Previous Version | Text Only | Print | Product List | Glossary On
Versions: 1 2 3 4 5 6 7 8 9 10 11 12 13 14 15 16 17 18 19 20 21 22 23 24 25 26 27 28 29 30 31 32 33 34 35 36 37 38 39 40 41 42 43 44 45 46 47 48 49 50
000
ASUS41 KGYX 310610
RWRGYX
WEATHER ROUNDUP FOR MAINE AND NEW HAMPSHIRE
NATIONAL WEATHER SERVICE GRAY ME
200 AM EDT SAT JUL 31 2021

MEZ002-005-006-010-012-015-018-020-021-024-026-027-029-310700-
MAINE

CITY           SKY/WX    TMP DP  RH WIND       PRES   REMARKS
PORTLAND       CLEAR     55  46  71 SW5       29.83F
6HR MIN TEMP:  55; 6HR MAX TEMP:  67;

SANFORD        CLEAR     53  48  83 SE5       29.85F
BAR HARBOR     CLEAR     55  46  71 W5        29.76S
WISCASSET      CLEAR     57  46  66 VRB3      29.83R
6HR MIN TEMP:  56; 6HR MAX TEMP:  66;

ROCKLAND       CLEAR     54  48  80 W5        29.79S
FRYEBURG       CLEAR     58  43  57 W7G22     29.84F
6HR MIN TEMP:  58; 6HR MAX TEMP:  63;

LEWISTONAUBURN MOCLDY    58  45  62 NW9       29.83S
AUGUSTA        MOCLDY    58  45  62 W6        29.81F
6HR MIN TEMP:  58; 6HR MAX TEMP:  65;

WATERVILLE     PTCLDY    56  46  69 W7        29.77F
BANGOR         CLOUDY    56  46  69 W8        29.76S
6HR MIN TEMP:  53; 6HR MAX TEMP:  65;

GREENVILLE       N/A     52  43  71 NW15G26   29.73F
6HR MIN TEMP:  52; 6HR MAX TEMP:  57;

MILLINOCKET    MOCLDY    55  45  68 W12G22    29.73S
6HR MIN TEMP:  55; 6HR MAX TEMP:  65;

HOULTON        CLEAR     51  48  89 VRB6      29.66S
6HR MIN TEMP:  51; 6HR MAX TEMP:  61; 6HR PCP: TRACE;

PRESQUE ISLE   CLOUDY    54  49  83 W14       29.66S
6HR MIN TEMP:  53; 6HR MAX TEMP:  62;

FRENCHVILLE    CLOUDY    53  46  77 W10       29.62F
6HR MIN TEMP:  50; 6HR MAX TEMP:  57;

CARIBOU        CLOUDY    55  46  71 W9        29.63S
6HR MIN TEMP:  54; 6HR MAX TEMP:  62;

$$

NHZ002-005-008-009-011-012-014-310700-
NEW HAMPSHIRE

CITY           SKY/WX    TMP DP  RH WIND       PRES   REMARKS
PORTSMOUTH     PTCLDY    59  44  59 W7        29.87S
ROCHESTER      CLEAR     57  46  66 VRB3      29.85F
6HR MIN TEMP:  57; 6HR MAX TEMP:  66;

NASHUA         MOCLDY    58  48  69 W8        29.90F
MANCHESTER     PTCLDY    59  45  59 SW9       29.87F
6HR MIN TEMP:  59; 6HR MAX TEMP:  70;

CONCORD        CLEAR     57  45  64 W7        29.88F
6HR MIN TEMP:  57; 6HR MAX TEMP:  66;

LACONIA        CLOUDY    59  46  62 W7        29.87F
BERLIN           N/A     54  44  69 MISG      29.85F
6HR MIN TEMP:  54; 6HR MAX TEMP:  59;

WHITEFIELD     CLOUDY    54  45  71 VRB6      29.88F
6HR MIN TEMP:  54; 6HR MAX TEMP:  57;

JAFFREY        MOCLDY    58  44  60 VRB3      29.92S
6HR MIN TEMP:  57; 6HR MAX TEMP:  66;

KEENE          MOCLDY    52  49  89 CALM      29.93S
LEBANON          N/A    N/A N/A N/A MISG      29.89F
MT WASHINGTON  NOT AVBL
$$

VTZ005-007-008-310700-
VERMONT

CITY           SKY/WX    TMP DP  RH WIND       PRES   REMARKS
ST JOHNSBURY     N/A     57  45  64 MISG      29.87F
MONTPELIER     CLOUDY    57  44  62 NW7       29.94F
BURLINGTON     CLOUDY    60  45  57 W6        29.92F
$$

MAZ007-012-024-CTZ003-RIZ002-NYZ038-NYZ072-310700-
SOUTHERN NEW ENGLAND AND NY

CITY           SKY/WX    TMP DP  RH WIND       PRES   REMARKS
BOSTON         CLEAR     64  46  52 W12       29.90R
WORCESTER      CLEAR     54  44  69 W7        29.93F
NANTUCKET      CLEAR     69  52  54 N13       29.87F
PROVIDENCE     CLEAR     62  47  57 NW7       29.91F
HARTFORD       CLEAR     58  49  72 NW7       29.95S
ALBANY         PTCLDY    51  50  96 W3        29.96F
NEW YORK CITY  CLEAR     67  47  48 N13       29.95S
$$

ANZ081-ANZ082-ANZ150-NHZ014-MEZ023>029-310700-
COASTAL MARINE OBSERVATIONS

STATION/POSITION TIME  TEMP    WIND        PRES    WAVE
                       AIR SEA DIR/SP/G            HT/PER
                 (UTC) (F)     (DEG/KT/KT) (MB)    (FT/S)
MOUNT DESERT ROC 0600          280/ 17/ 18 1007.4R
ISLE OF SHOALS   0600   60     270/ 15/ 18 1010.3F
JEFFREYS LEDGE   0556      63                N/A     4/ 4
CASHES LEDGE BUO 0550   63 63  320/ 19/ 23 1009.5S   5/ 5
GEORGES BANK BUO 0550   65 63  290/ 12/ 14 1009.2F   6/ 7
$$

.............KEY..............
   WCI - WIND CHILL
   TC  - TEMPERATURE IN CELSIUS
   VSB - VISIBILITY IN MILES
   HX  - HEAT INDEX
   FAIR- INDICATES FEW OR NO CLOUDS BELOW 12,000 FT, WITH NO
         SIGNIFICANT WEATHER AND/OR OBSTRUCTIONS TO VISIBILITY.





USA.gov is the U.S. government's official web portal to all federal, state and local government web resources and services.